Location: Aalen
(48.8330°N, 10.1000°E)
Time: 09:40:01
(UTC+02:00)

Transit 2A - Pass Details

Date: 01 August 2021
Orbit: 594 x 964 km, 66.7° (Epoch: 24 September)

Event Time Altitude Azimuth Distance (km) Brightness Sun altitude
Rises 08:56:26 0° 244° (WSW) 2,859 8.5 28.2°
Reaches altitude 10° 08:58:48 10° 254° (WSW) 1,987 7.7 28.6°
Maximum altitude 09:02:50 33° 319° (NW) 1,105 6.7 29.3°
Drops below altitude 10° 09:07:11 10° 23° (NNE) 2,151 8.6 30.0°
Sets 09:09:51 0° 33° (NNE) 3,136 9.5 30.4°
